Location: Majestic Skies Ranch
(34.0000°N, 105.9300°W)
Time: 03:31:03
(UTC-06:00)

ISS - Visible Passes

Search period start: 29 April 2017 00:00
Search period end: 09 May 2017 00:00
Orbit: 401 x 409 km, 51.6° (Epoch: 29 April)

Date Brightness Start Highest point End Pass type
(mag) Time Alt. Az. Time Alt. Az. Time Alt. Az.
01 May -1.2 05:33:27 10° SSE 05:35:34 16° SE 05:37:41 10° E visible
03 May -3.0 05:24:36 10° SSW 05:27:44 46° SE 05:30:54 10° ENE visible
04 May -1.9 04:34:50 19° SSE 04:35:47 21° SE 04:38:21 10° ENE visible
05 May -3.5 05:17:41 17° WSW 05:20:00 56° NW 05:23:14 10° NE visible
06 May -3.8 04:27:44 62° SSE 04:27:55 64° SE 04:31:09 10° NE visible
07 May -1.1 03:37:43 17° E 03:37:43 17° E 03:38:46 10° ENE visible
07 May -2.1 05:10:22 14° W 05:12:22 23° NW 05:15:03 10° NNE visible
08 May -3.0 04:20:16 42° NNW 04:20:16 42° NNW 04:23:18 10° NNE visible
